2022/10/21 23:32:04+0000,-32.38,-44.42,-33.44,-52.79,-47.03,-54.04
2022/10/21 23:32:56+0000,-32.80,-45.64,-33.72,-46.05,-52.13,-53.18
2022/10/21 23:33:48+0000,-32.61,-45.60,-33.81,-52.48,-51.83,-51.99
2022/10/21 23:34:40+0000,-31.85,-45.94,-33.82,-50.69,-52.28,-52.94
2022/10/21 23:35:33+0000,-33.58,-44.45,-33.24,-45.39,-50.57,-53.85
2022/10/21 23:36:25+0000,-32.86,-45.08,-34.00,-46.16,-52.47,-53.89
2022/10/21 23:37:17+0000,-33.58,-44.52,-33.92,-51.20,-51.51,-54.85
2022/10/21 23:38:09+0000,-32.74,-45.16,-33.68,-51.64,-46.31,-54.03
2022/10/21 23:39:01+0000,-32.81,-46.52,-33.23,-47.60,-51.34,-54.70
2022/10/21 23:39:53+0000,-32.18,-45.81,-34.10,-45.64,-47.71,-53.67
2022/10/21 23:40:45+0000,-33.53,-45.39,-33.87,-50.60,-52.41,-53.06
2022/10/21 23:41:46+0000,-32.89,-43.73,-33.87,-50.58,-51.40,-53.21
2022/10/21 23:42:38+0000,-33.38,-45.81,-33.72,-51.13,-45.47,-53.47
2022/10/21 23:43:30+0000,-32.94,-44.83,-34.18,-44.95,-50.66,-53.78
2022/10/21 23:44:22+0000,-33.16,-45.46,-33.82,-45.89,-46.96,-53.88
2022/10/21 23:45:14+0000,-32.64,-45.69,-34.43,-50.58,-52.14,-54.16
2022/10/21 23:46:06+0000,-32.86,-46.05,-33.56,-51.44,-46.43,-54.51
2022/10/21 23:46:58+0000,-32.46,-44.24,-33.76,-45.65,-51.51,-54.51
2022/10/21 23:47:50+0000,-32.85,-45.55,-33.74,-52.57,-47.29,-54.00
2022/10/21 23:48:42+0000,-33.30,-45.15,-34.52,-49.80,-50.34,-51.12
2022/10/21 23:49:34+0000,-32.09,-44.86,-33.79,-52.51,-48.52,-52.09
2022/10/21 23:50:27+0000,-33.20,-45.30,-33.94,-48.37,-50.37,-51.78
2022/10/21 23:51:31+0000,-32.71,-45.83,-33.50,-48.13,-49.22,-49.89
2022/10/21 23:52:23+0000,-33.20,-46.42,-33.98,-47.95,-47.25,-50.34
2022/10/21 23:53:15+0000,-33.73,-45.03,-34.23,-51.58,-49.69,-50.15
2022/10/21 23:54:07+0000,-33.00,-45.83,-33.30,-51.34,-49.22,-52.87
2022/10/21 23:54:59+0000,-32.93,-46.70,-33.70,-49.54,-48.90,-52.16
2022/10/21 23:55:51+0000,-33.41,-45.63,-33.67,-50.67,-46.27,-52.80
2022/10/21 23:56:43+0000,-33.20,-46.31,-32.88,-51.41,-49.81,-50.71
2022/10/21 23:57:36+0000,-33.19,-45.92,-33.91,-52.26,-45.01,-50.24
2022/10/21 23:58:28+0000,-32.74,-44.45,-33.36,-49.22,-48.45,-50.37
2022/10/21 23:59:20+0000,-32.08,-45.01,-33.87,-52.48,-46.36,-52.08
2022/10/22 00:00:12+0000,-32.51,-45.65,-34.06,-51.17,-48.78,-52.41
2022/10/22 00:01:14+0000,-32.62,-45.82,-33.19,-49.76,-48.38,-52.37
2022/10/22 00:02:06+0000,-33.15,-46.04,-33.18,-51.01,-45.50,-52.42
2022/10/22 00:02:58+0000,-32.59,-45.46,-32.69,-50.03,-48.76,-52.17
2022/10/22 00:03:50+0000,-32.83,-45.17,-33.98,-49.30,-50.50,-52.45
2022/10/22 00:04:43+0000,-32.75,-45.23,-34.31,-50.47,-49.81,-52.66
2022/10/22 00:05:35+0000,-32.74,-45.49,-33.30,-51.18,-47.81,-52.36
2022/10/22 00:06:27+0000,-33.81,-44.37,-33.71,-48.95,-48.84,-52.49
2022/10/22 00:07:19+0000,-33.09,-44.84,-33.82,-52.38,-51.21,-52.26
2022/10/22 00:08:11+0000,-32.61,-44.80,-33.37,-50.37,-51.27,-52.44
2022/10/22 00:09:03+0000,-32.21,-45.61,-33.15,-51.19,-47.37,-52.62
2022/10/22 00:09:55+0000,-31.71,-45.54,-33.72,-47.74,-50.59,-52.36
2022/10/22 00:10:47+0000,-32.79,-45.10,-33.63,-51.91,-50.24,-52.05
2022/10/22 00:11:45+0000,-32.71,-45.34,-33.90,-51.07,-50.59,-52.37
2022/10/22 00:12:38+0000,-33.19,-43.28,-33.47,-51.06,-44.27,-51.92
2022/10/22 00:13:30+0000,-32.74,-46.29,-33.93,-47.71,-49.41,-52.43
2022/10/22 00:14:22+0000,-32.50,-45.75,-33.16,-49.27,-46.35,-51.81
2022/10/22 00:15:14+0000,-32.44,-46.08,-33.62,-50.48,-51.77,-51.83
2022/10/22 00:16:06+0000,-32.41,-46.62,-33.75,-50.61,-49.52,-51.62
2022/10/22 00:16:58+0000,-32.78,-46.25,-33.55,-48.02,-50.45,-52.18
2022/10/22 00:17:50+0000,-32.80,-46.48,-33.51,-49.32,-51.24,-51.84
2022/10/22 00:18:42+0000,-32.45,-40.87,-33.69,-49.09,-51.50,-52.00
2022/10/22 00:19:34+0000,-33.00,-47.11,-33.95,-52.19,-49.88,-52.13
2022/10/22 00:20:26+0000,-32.91,-47.07,-33.85,-47.93,-50.92,-51.93
2022/10/22 00:21:25+0000,-33.06,-46.13,-33.61,-45.14,-51.17,-49.20
2022/10/22 00:22:17+0000,-32.86,-44.17,-33.80,-50.22,-50.37,-52.14
2022/10/22 00:23:09+0000,-32.76,-47.00,-33.32,-49.94,-50.69,-52.27
2022/10/22 00:24:01+0000,-33.56,-47.96,-34.09,-48.75,-49.85,-52.14
2022/10/22 00:24:53+0000,-32.28,-46.74,-33.50,-50.06,-45.99,-52.00
2022/10/22 00:25:45+0000,-33.02,-45.05,-34.11,-50.02,-50.84,-51.87
2022/10/22 00:26:37+0000,-33.27,-47.55,-33.61,-50.35,-50.30,-51.63
2022/10/22 00:27:29+0000,-33.31,-45.02,-33.74,-49.77,-48.82,-51.82
2022/10/22 00:28:21+0000,-32.49,-45.66,-33.84,-49.88,-50.16,-52.25
2022/10/22 00:29:13+0000,-32.89,-46.90,-33.32,-48.95,-51.29,-51.76
2022/10/22 00:30:06+0000,-32.23,-46.98,-33.59,-50.15,-49.91,-51.36
2022/10/22 00:31:04+0000,-32.39,-45.38,-33.89,-51.73,-49.13,-49.71
2022/10/22 00:31:56+0000,-31.54,-44.53,-33.49,-49.44,-50.95,-49.90
2022/10/22 00:32:48+0000,-32.58,-43.77,-33.34,-52.43,-51.02,-49.09
2022/10/22 00:33:40+0000,-33.41,-46.37,-33.91,-49.90,-51.06,-49.82
2022/10/22 00:34:32+0000,-34.20,-45.88,-33.85,-49.22,-48.95,-49.71
2022/10/22 00:35:24+0000,-33.89,-45.33,-33.74,-48.89,-50.69,-49.82
2022/10/22 00:36:17+0000,-33.90,-43.94,-33.60,-50.81,-48.82,-49.85
2022/10/22 00:37:09+0000,-34.26,-44.49,-33.57,-50.22,-49.16,-49.79
2022/10/22 00:38:01+0000,-32.98,-45.23,-33.57,-47.79,-51.18,-49.55
2022/10/22 00:38:53+0000,-32.82,-45.59,-33.69,-48.40,-50.82,-49.62
2022/10/22 00:39:45+0000,-33.65,-45.01,-33.48,-51.07,-49.97,-49.59
2022/10/22 00:40:37+0000,-32.09,-46.48,-33.54,-50.64,-50.89,-50.09
2022/10/22 00:41:35+0000,-32.87,-46.10,-33.71,-51.88,-50.31,-49.87
2022/10/22 00:42:27+0000,-33.35,-45.67,-33.42,-47.79,-51.71,-49.18
2022/10/22 00:43:19+0000,-33.38,-43.71,-33.69,-52.18,-51.40,-48.97
2022/10/22 00:44:11+0000,-33.33,-43.84,-33.56,-50.37,-51.64,-49.76
2022/10/22 00:45:03+0000,-33.39,-45.01,-33.81,-50.04,-51.01,-49.65
2022/10/22 00:45:55+0000,-32.29,-45.73,-33.87,-50.69,-52.09,-49.91
2022/10/22 00:46:47+0000,-31.12,-45.94,-33.35,-50.86,-51.78,-49.82
2022/10/22 00:47:40+0000,-33.18,-44.63,-33.69,-51.19,-51.01,-49.65
2022/10/22 00:48:32+0000,-32.12,-45.67,-33.70,-49.98,-50.21,-49.99
2022/10/22 00:49:24+0000,-31.75,-46.63,-33.27,-50.08,-51.54,-49.63
2022/10/22 00:50:16+0000,-33.48,-42.77,-33.51,-51.46,-52.00,-49.91
2022/10/22 00:51:14+0000,-32.47,-44.35,-33.78,-51.63,-51.45,-49.56
2022/10/22 00:52:06+0000,-31.63,-46.25,-33.25,-52.06,-51.97,-49.89
2022/10/22 00:52:58+0000,-33.51,-44.46,-34.25,-49.31,-51.96,-49.49
2022/10/22 00:53:50+0000,-32.81,-44.77,-33.33,-52.52,-52.19,-49.46
2022/10/22 00:54:42+0000,-32.32,-44.07,-33.66,-51.31,-51.18,-50.50
2022/10/22 00:55:34+0000,-31.73,-45.61,-32.81,-51.75,-51.58,-50.02
2022/10/22 00:56:27+0000,-33.21,-46.15,-33.47,-48.60,-51.96,-49.36
2022/10/22 00:57:19+0000,-33.72,-44.50,-33.64,-51.59,-52.49,-50.18
2022/10/22 00:58:11+0000,-32.68,-44.46,-33.39,-51.82,-52.32,-49.25
2022/10/22 00:59:03+0000,-32.17,-45.80,-33.21,-48.54,-52.05,-49.66
2022/10/22 00:59:55+0000,-32.31,-46.90,-33.11,-49.05,-52.55,-49.68
2022/10/22 01:00:47+0000,-33.30,-44.96,-33.29,-50.38,-51.28,-50.07
2022/10/22 01:01:46+0000,-31.92,-44.47,-32.68,-51.45,-52.00,-49.90
2022/10/22 01:02:38+0000,-33.42,-45.08,-33.43,-52.59,-52.32,-49.63
2022/10/22 01:03:30+0000,-33.37,-46.04,-32.92,-48.18,-51.88,-49.91
2022/10/22 01:04:22+0000,-33.53,-47.30,-32.78,-48.10,-51.62,-49.90
2022/10/22 01:05:14+0000,-33.01,-44.12,-32.93,-51.45,-51.66,-49.97
2022/10/22 01:06:06+0000,-32.82,-47.24,-33.08,-49.89,-51.90,-50.19
2022/10/22 01:06:58+0000,-33.76,-47.10,-32.85,-47.34,-51.77,-49.67
2022/10/22 01:07:50+0000,-34.37,-46.26,-33.11,-48.89,-51.82,-49.46
2022/10/22 01:08:42+0000,-34.06,-44.45,-33.43,-50.44,-51.52,-50.40
2022/10/22 01:09:34+0000,-34.30,-47.14,-33.76,-51.44,-50.97,-50.41
2022/10/22 01:10:27+0000,-33.85,-44.06,-32.87,-48.95,-51.18,-50.53
2022/10/22 01:11:26+0000,-34.49,-45.39,-33.44,-46.28,-50.42,-52.10
2022/10/22 01:12:18+0000,-34.31,-42.44,-33.19,-52.21,-50.25,-50.92
2022/10/22 01:13:10+0000,-34.10,-46.47,-33.39,-49.97,-51.04,-51.26
2022/10/22 01:14:02+0000,-33.96,-46.40,-33.53,-46.12,-51.09,-51.10
2022/10/22 01:14:54+0000,-34.61,-46.65,-32.97,-46.80,-50.62,-50.90
2022/10/22 01:15:46+0000,-32.70,-44.99,-33.69,-48.70,-50.65,-50.13
2022/10/22 01:16:38+0000,-33.18,-45.39,-34.06,-48.72,-49.43,-50.37
2022/10/22 01:17:30+0000,-33.52,-45.24,-33.39,-49.29,-49.93,-50.09
2022/10/22 01:18:23+0000,-33.24,-46.25,-33.01,-47.78,-49.24,-50.25
2022/10/22 01:19:15+0000,-33.49,-45.42,-33.17,-50.71,-49.49,-50.32
2022/10/22 01:20:07+0000,-32.79,-46.15,-32.98,-49.37,-49.65,-50.41
2022/10/22 01:21:07+0000,-32.89,-45.93,-32.62,-48.23,-49.33,-50.70
2022/10/22 01:21:59+0000,-33.28,-45.66,-33.24,-45.28,-49.82,-50.27
2022/10/22 01:22:51+0000,-33.00,-45.85,-33.62,-48.71,-49.91,-50.49
2022/10/22 01:23:43+0000,-32.26,-45.67,-33.54,-50.09,-49.47,-49.58
2022/10/22 01:24:35+0000,-32.18,-45.99,-33.46,-52.07,-50.26,-50.35
2022/10/22 01:25:27+0000,-32.40,-44.02,-33.86,-48.51,-49.19,-51.02
2022/10/22 01:26:19+0000,-31.63,-44.55,-33.27,-52.59,-50.56,-50.37
2022/10/22 01:27:11+0000,-33.40,-45.63,-32.81,-51.36,-50.07,-50.36
2022/10/22 01:28:03+0000,-33.65,-45.57,-32.91,-52.52,-50.68,-49.90
2022/10/22 01:28:55+0000,-32.64,-44.98,-32.61,-48.50,-50.98,-50.35
2022/10/22 01:29:48+0000,-32.63,-44.50,-32.99,-52.23,-48.93,-50.31
2022/10/22 01:30:40+0000,-32.07,-45.12,-33.46,-49.27,-49.46,-50.90
2022/10/22 01:31:40+0000,-32.57,-45.45,-33.17,-51.18,-41.58,-50.58
2022/10/22 01:32:32+0000,-33.14,-43.24,-33.06,-46.88,-50.20,-50.58
2022/10/22 01:33:24+0000,-32.50,-45.47,-33.31,-47.27,-49.44,-50.47
2022/10/22 01:34:16+0000,-32.92,-44.49,-33.24,-51.94,-49.48,-50.95
2022/10/22 01:35:08+0000,-32.97,-45.46,-33.33,-51.36,-52.07,-51.64
2022/10/22 01:36:00+0000,-33.06,-44.80,-33.45,-49.14,-52.40,-51.19
2022/10/22 01:36:52+0000,-32.08,-46.58,-33.14,-48.15,-52.36,-51.89
2022/10/22 01:37:44+0000,-32.60,-44.57,-33.58,-50.09,-51.18,-51.48
2022/10/22 01:38:36+0000,-32.73,-46.25,-33.92,-51.04,-51.12,-51.30
2022/10/22 01:39:28+0000,-29.71,-44.73,-33.69,-49.79,-51.76,-51.22
2022/10/22 01:40:21+0000,-29.88,-46.12,-33.10,-48.83,-51.68,-51.27
2022/10/22 01:41:19+0000,-32.47,-45.22,-33.68,-52.31,-51.25,-51.59
2022/10/22 01:42:11+0000,-33.02,-44.91,-33.28,-50.61,-52.00,-51.17
2022/10/22 01:43:03+0000,-32.81,-45.52,-33.83,-51.82,-52.15,-51.20
2022/10/22 01:43:55+0000,-33.03,-44.41,-33.41,-48.18,-51.17,-50.82
2022/10/22 01:44:47+0000,-32.73,-44.50,-33.48,-51.19,-50.18,-51.07
2022/10/22 01:45:39+0000,-33.02,-44.31,-33.53,-52.25,-50.73,-49.12
2022/10/22 01:46:31+0000,-32.26,-44.24,-33.54,-49.13,-50.22,-50.40
2022/10/22 01:47:23+0000,-32.87,-45.63,-33.99,-49.00,-49.84,-50.68
2022/10/22 01:48:16+0000,-33.29,-44.47,-33.15,-50.38,-50.35,-51.00
2022/10/22 01:49:08+0000,-33.17,-46.97,-33.49,-50.78,-51.56,-50.57
2022/10/22 01:50:00+0000,-33.07,-46.02,-33.42,-48.96,-51.49,-50.26
2022/10/22 01:51:00+0000,-32.78,-45.36,-33.54,-50.40,-51.12,-50.16
2022/10/22 01:51:52+0000,-31.66,-45.70,-33.81,-49.46,-50.62,-50.15
2022/10/22 01:52:44+0000,-33.18,-35.56,-33.26,-50.97,-51.09,-50.17
2022/10/22 01:53:36+0000,-32.79,-46.53,-33.74,-51.79,-51.25,-50.53
2022/10/22 01:54:28+0000,-32.85,-46.07,-34.25,-50.28,-51.17,-50.61
2022/10/22 01:55:20+0000,-33.38,-45.04,-33.65,-52.38,-51.28,-50.64
2022/10/22 01:56:12+0000,-33.08,-45.06,-33.66,-50.23,-50.53,-50.66
2022/10/22 01:57:04+0000,-32.62,-46.33,-32.97,-52.84,-51.77,-50.48
2022/10/22 01:57:56+0000,-32.61,-46.20,-33.46,-49.84,-49.98,-50.38
2022/10/22 01:58:48+0000,-32.29,-45.21,-32.96,-50.76,-48.62,-50.25
2022/10/22 01:59:41+0000,-32.51,-42.58,-33.90,-50.39,-49.67,-50.21
2022/10/22 02:00:33+0000,-32.50,-47.33,-33.74,-49.83,-49.77,-50.39
2022/10/22 02:01:45+0000,-32.97,-41.85,-33.04,-51.82,-48.94,-49.94
2022/10/22 02:02:37+0000,-32.62,-45.46,-33.34,-52.13,-49.50,-50.03
2022/10/22 02:03:29+0000,-33.03,-45.82,-33.81,-50.75,-49.38,-50.50
2022/10/22 02:04:21+0000,-32.82,-46.98,-33.69,-50.92,-50.60,-50.60
2022/10/22 02:05:13+0000,-33.34,-42.36,-34.08,-51.59,-50.11,-50.30
2022/10/22 02:06:05+0000,-32.25,-46.75,-33.79,-50.74,-48.85,-50.60
2022/10/22 02:06:57+0000,-32.41,-46.19,-33.86,-50.86,-49.84,-50.54
2022/10/22 02:07:49+0000,-32.39,-44.05,-33.34,-52.09,-49.30,-49.81
2022/10/22 02:08:41+0000,-33.06,-44.96,-33.70,-51.39,-50.05,-50.54
2022/10/22 02:09:33+0000,-32.63,-44.80,-33.84,-52.13,-49.73,-50.53
2022/10/22 02:10:26+0000,-31.91,-44.52,-34.23,-48.25,-50.14,-50.13
2022/10/22 02:11:25+0000,-31.73,-44.92,-34.17,-49.21,-49.85,-50.65
2022/10/22 02:12:17+0000,-32.27,-44.85,-33.83,-51.04,-49.69,-50.88
2022/10/22 02:13:09+0000,-32.46,-44.18,-33.97,-51.07,-50.03,-50.03
2022/10/22 02:14:01+0000,-32.32,-43.40,-33.51,-50.31,-49.04,-49.86
2022/10/22 02:14:53+0000,-31.31,-44.02,-34.09,-50.56,-50.36,-49.01
2022/10/22 02:15:46+0000,-31.91,-44.14,-33.55,-50.73,-50.22,-49.04
2022/10/22 02:16:38+0000,-32.36,-43.67,-33.56,-50.58,-50.09,-50.72
2022/10/22 02:17:30+0000,-32.53,-43.99,-33.39,-48.70,-49.52,-49.46
2022/10/22 02:18:22+0000,-31.69,-44.91,-33.49,-50.30,-50.03,-49.38
2022/10/22 02:19:14+0000,-32.51,-41.55,-33.58,-50.73,-49.53,-49.40
2022/10/22 02:20:06+0000,-32.42,-46.01,-33.28,-50.38,-49.90,-49.17
2022/10/22 02:21:06+0000,-33.13,-44.95,-34.07,-50.06,-49.94,-49.35
2022/10/22 02:21:58+0000,-31.94,-43.02,-34.69,-50.39,-50.23,-47.97
2022/10/22 02:22:50+0000,-31.76,-45.91,-33.93,-51.02,-50.04,-48.28
2022/10/22 02:23:42+0000,-32.38,-44.70,-34.62,-51.11,-48.26,-48.34
2022/10/22 02:24:34+0000,-31.85,-43.48,-33.22,-52.05,-49.23,-48.18
2022/10/22 02:25:26+0000,-31.78,-43.79,-34.10,-47.26,-48.40,-47.96
2022/10/22 02:26:18+0000,-32.44,-44.36,-33.78,-52.48,-48.08,-48.41
2022/10/22 02:27:10+0000,-32.24,-44.91,-33.28,-51.45,-47.46,-48.70
2022/10/22 02:28:02+0000,-32.44,-43.75,-32.92,-47.60,-47.84,-48.33
2022/10/22 02:28:55+0000,-32.00,-42.93,-33.17,-47.44,-48.72,-48.15
2022/10/22 02:29:47+0000,-32.56,-43.37,-34.39,-50.27,-49.23,-48.55
2022/10/22 02:30:39+0000,-32.75,-44.51,-33.36,-50.68,-48.33,-47.90
2022/10/22 02:31:39+0000,-32.25,-44.37,-34.01,-51.20,-47.96,-48.12
2022/10/22 02:32:31+0000,-32.76,-42.90,-32.95,-50.77,-48.22,-50.05
2022/10/22 02:33:23+0000,-32.53,-42.85,-33.18,-51.07,-47.71,-49.98
2022/10/22 02:34:15+0000,-32.38,-44.81,-33.75,-50.97,-48.09,-50.00
2022/10/22 02:35:07+0000,-33.91,-45.38,-33.30,-51.66,-48.97,-50.34
2022/10/22 02:35:59+0000,-33.19,-41.35,-33.81,-50.48,-46.43,-48.90
2022/10/22 02:36:51+0000,-33.04,-45.15,-32.60,-50.87,-46.87,-48.65
2022/10/22 02:37:43+0000,-33.20,-40.42,-34.36,-51.83,-47.19,-48.67
2022/10/22 02:38:35+0000,-32.83,-41.93,-33.20,-51.74,-48.59,-49.57
2022/10/22 02:39:27+0000,-32.66,-43.15,-34.15,-48.40,-49.06,-49.71
2022/10/22 02:40:20+0000,-32.29,-43.36,-32.88,-51.92,-48.91,-50.60
2022/10/22 02:41:20+0000,-31.76,-43.98,-33.18,-51.05,-49.39,-50.02
2022/10/22 02:42:12+0000,-32.40,-43.57,-33.75,-50.78,-48.77,-50.37
2022/10/22 02:43:04+0000,-31.95,-43.03,-33.27,-52.08,-48.51,-49.98
2022/10/22 02:43:56+0000,-31.03,-41.88,-33.59,-50.99,-49.02,-49.97
2022/10/22 02:44:48+0000,-32.16,-42.91,-32.75,-51.58,-48.32,-49.77
2022/10/22 02:45:40+0000,-31.93,-44.60,-33.37,-51.10,-48.16,-49.76
2022/10/22 02:46:32+0000,-31.21,-43.34,-33.07,-50.91,-48.60,-49.66
2022/10/22 02:47:24+0000,-30.78,-42.91,-33.33,-51.32,-49.03,-49.86
2022/10/22 02:48:16+0000,-32.38,-43.61,-33.16,-51.06,-49.51,-50.10
2022/10/22 02:49:08+0000,-32.54,-44.87,-33.10,-52.43,-49.69,-50.66
2022/10/22 02:50:01+0000,-32.53,-43.71,-33.70,-50.81,-49.24,-50.34
2022/10/22 02:51:01+0000,-32.62,-44.40,-33.55,-50.98,-50.50,-50.40
2022/10/22 02:51:53+0000,-32.57,-44.84,-33.57,-50.97,-48.85,-49.62
2022/10/22 02:52:45+0000,-32.69,-43.10,-33.88,-49.94,-48.46,-49.62
2022/10/22 02:53:37+0000,-32.07,-45.11,-33.81,-51.04,-49.02,-50.23
2022/10/22 02:54:29+0000,-31.84,-44.84,-34.20,-51.16,-48.30,-50.30
2022/10/22 02:55:21+0000,-31.32,-44.64,-33.81,-51.49,-48.76,-49.95
2022/10/22 02:56:13+0000,-32.25,-44.16,-34.05,-51.00,-48.52,-49.81
2022/10/22 02:57:05+0000,-32.01,-44.98,-33.75,-51.37,-47.99,-50.54
2022/10/22 02:57:57+0000,-31.78,-45.34,-33.56,-50.90,-48.48,-49.67
2022/10/22 02:58:49+0000,-32.02,-43.44,-33.46,-51.34,-48.72,-50.60
2022/10/22 02:59:42+0000,-31.26,-44.29,-33.95,-50.84,-50.35,-53.00
2022/10/22 03:00:34+0000,-31.66,-44.71,-33.65,-50.31,-51.78,-53.46
2022/10/22 03:01:33+0000,-31.78,-45.37,-33.85,-52.17,-51.86,-53.89
2022/10/22 03:02:25+0000,-30.48,-44.30,-33.68,-50.47,-52.70,-53.42
2022/10/22 03:03:17+0000,-31.35,-43.66,-33.93,-51.36,-51.94,-53.61
2022/10/22 03:04:09+0000,-31.65,-44.45,-32.89,-51.02,-52.25,-53.32
2022/10/22 03:05:01+0000,-32.21,-44.87,-33.54,-49.99,-51.96,-53.39
2022/10/22 03:05:53+0000,-30.62,-46.34,-33.21,-50.69,-52.14,-53.38
2022/10/22 03:06:46+0000,-30.72,-43.62,-33.94,-51.60,-51.75,-53.42
2022/10/22 03:07:38+0000,-31.36,-45.27,-34.12,-51.90,-51.61,-53.50
2022/10/22 03:08:30+0000,-31.42,-43.57,-33.51,-50.97,-51.50,-54.00
2022/10/22 03:09:22+0000,-30.61,-45.37,-33.40,-50.88,-52.61,-53.32
2022/10/22 03:10:15+0000,-31.26,-44.92,-32.84,-51.28,-52.17,-53.30
2022/10/22 03:11:14+0000,-31.54,-44.31,-33.84,-51.01,-51.41,-52.43
2022/10/22 03:12:06+0000,-31.62,-44.60,-34.18,-50.84,-52.21,-53.76
2022/10/22 03:12:58+0000,-30.56,-44.84,-33.83,-48.55,-52.23,-53.59
2022/10/22 03:13:50+0000,-30.62,-44.92,-33.91,-51.17,-51.76,-53.17
2022/10/22 03:14:43+0000,-31.99,-43.20,-34.19,-51.22,-51.87,-53.50
2022/10/22 03:15:35+0000,-31.99,-43.70,-33.31,-51.09,-51.80,-53.71
2022/10/22 03:16:27+0000,-30.61,-42.81,-34.25,-49.90,-51.88,-53.43
2022/10/22 03:17:19+0000,-31.53,-44.72,-32.85,-51.68,-51.64,-53.68
2022/10/22 03:18:11+0000,-31.22,-45.19,-33.77,-51.82,-51.55,-53.18
2022/10/22 03:19:03+0000,-32.30,-44.72,-32.96,-52.18,-52.09,-52.97
2022/10/22 03:19:55+0000,-31.45,-44.70,-33.91,-50.59,-52.05,-52.99
2022/10/22 03:20:47+0000,-31.57,-44.31,-33.53,-51.34,-51.23,-53.62
2022/10/22 03:21:49+0000,-31.93,-44.10,-33.84,-52.55,-52.36,-53.34
2022/10/22 03:22:41+0000,-31.64,-41.28,-34.05,-52.53,-51.69,-52.99
2022/10/22 03:23:33+0000,-32.12,-45.04,-33.32,-51.52,-51.74,-53.25
2022/10/22 03:24:25+0000,-31.96,-43.37,-33.66,-51.33,-52.57,-53.14
2022/10/22 03:25:17+0000,-31.39,-43.22,-33.02,-51.92,-52.09,-52.89
2022/10/22 03:26:09+0000,-31.80,-42.43,-33.34,-51.40,-51.65,-52.91
2022/10/22 03:27:01+0000,-32.45,-43.28,-32.79,-51.45,-51.87,-52.95
2022/10/22 03:27:53+0000,-31.73,-44.11,-33.42,-51.80,-52.40,-52.83
2022/10/22 03:28:45+0000,-32.41,-42.97,-32.74,-51.87,-51.49,-51.02
2022/10/22 03:29:37+0000,-31.65,-44.83,-33.69,-52.26,-52.28,-52.27
2022/10/22 03:30:30+0000,-32.05,-42.72,-33.50,-52.55,-52.20,-53.03
2022/10/22 03:31:29+0000,-32.24,-43.59,-34.08,-51.83,-52.03,-53.31
2022/10/22 03:32:21+0000,-32.37,-45.62,-33.64,-51.64,-52.04,-53.23
2022/10/22 03:33:13+0000,-32.18,-42.55,-33.88,-51.81,-52.36,-52.98
2022/10/22 03:34:05+0000,-32.22,-44.93,-33.90,-52.33,-52.18,-53.20
2022/10/22 03:34:57+0000,-31.53,-45.02,-33.73,-52.35,-52.16,-53.12
2022/10/22 03:35:50+0000,-31.80,-43.49,-33.71,-51.84,-52.36,-54.00
2022/10/22 03:36:42+0000,-32.02,-42.99,-33.94,-52.28,-52.41,-53.13
2022/10/22 03:37:34+0000,-32.43,-44.26,-33.42,-52.47,-52.52,-53.49
2022/10/22 03:38:26+0000,-32.27,-45.66,-33.96,-51.89,-52.34,-53.13
2022/10/22 03:39:18+0000,-32.33,-43.19,-34.01,-52.02,-52.53,-53.92
2022/10/22 03:40:10+0000,-31.77,-44.19,-33.83,-51.38,-52.25,-53.40
2022/10/22 03:41:09+0000,-31.41,-44.57,-33.37,-51.66,-52.42,-53.58
2022/10/22 03:42:01+0000,-31.09,-45.90,-33.09,-52.09,-52.50,-53.93
2022/10/22 03:42:53+0000,-31.22,-44.69,-34.20,-51.87,-52.67,-53.29
2022/10/22 03:43:46+0000,-31.06,-44.48,-33.35,-51.66,-52.91,-53.14
2022/10/22 03:44:38+0000,-31.83,-46.30,-32.70,-51.25,-52.99,-53.10
2022/10/22 03:45:30+0000,-32.16,-45.10,-33.32,-52.50,-52.40,-53.39
2022/10/22 03:46:22+0000,-31.98,-45.99,-34.44,-52.49,-52.39,-53.71
2022/10/22 03:47:14+0000,-32.86,-45.03,-33.62,-51.74,-52.33,-53.62
2022/10/22 03:48:06+0000,-32.09,-44.74,-33.45,-51.72,-52.33,-53.63
2022/10/22 03:48:58+0000,-32.43,-45.64,-33.69,-53.10,-52.45,-53.42
2022/10/22 03:49:50+0000,-32.70,-45.20,-33.94,-52.89,-52.82,-53.37
2022/10/22 03:50:42+0000,-32.08,-44.95,-33.74,-52.61,-52.86,-53.56
2022/10/22 03:51:42+0000,-31.90,-44.52,-33.28,-52.45,-53.05,-53.21
2022/10/22 03:52:34+0000,-31.92,-45.29,-33.42,-53.10,-52.38,-53.63
2022/10/22 03:53:26+0000,-31.46,-46.35,-33.25,-52.32,-52.21,-53.33
2022/10/22 03:54:18+0000,-31.49,-43.71,-33.70,-52.30,-53.01,-53.19
2022/10/22 03:55:10+0000,-32.30,-44.75,-33.97,-52.14,-52.48,-53.84
2022/10/22 03:56:02+0000,-32.07,-45.18,-34.19,-52.41,-52.85,-53.30
2022/10/22 03:56:54+0000,-32.50,-45.30,-33.79,-52.59,-52.49,-53.06
2022/10/22 03:57:46+0000,-31.85,-44.25,-33.78,-52.45,-52.21,-53.05
2022/10/22 03:58:38+0000,-32.59,-45.61,-33.98,-52.58,-52.24,-53.56
2022/10/22 03:59:30+0000,-31.57,-45.99,-33.69,-52.22,-50.97,-51.95
2022/10/22 04:00:23+0000,-31.99,-46.25,-33.96,-52.17,-51.57,-52.53
2022/10/22 04:01:28+0000,-32.15,-46.18,-33.79,-51.99,-51.23,-53.08
2022/10/22 04:02:20+0000,-31.51,-46.16,-33.65,-52.02,-50.92,-52.86
2022/10/22 04:03:12+0000,-32.43,-45.64,-33.91,-52.24,-51.67,-52.67
2022/10/22 04:04:04+0000,-32.64,-46.53,-33.48,-52.39,-51.84,-52.65
2022/10/22 04:04:56+0000,-31.99,-45.46,-33.46,-51.45,-51.73,-52.13
2022/10/22 04:05:48+0000,-32.45,-45.51,-33.56,-52.28,-51.91,-52.84
2022/10/22 04:06:41+0000,-32.00,-46.09,-33.44,-52.77,-51.76,-52.52
2022/10/22 04:07:33+0000,-31.75,-44.82,-34.17,-51.94,-51.15,-53.04
2022/10/22 04:08:25+0000,-31.39,-45.41,-34.28,-52.66,-51.11,-52.38
2022/10/22 04:09:17+0000,-31.44,-45.32,-34.15,-52.24,-50.67,-52.20
2022/10/22 04:10:09+0000,-31.38,-45.31,-33.60,-52.07,-50.75,-52.39
2022/10/22 04:11:09+0000,-31.88,-45.66,-34.32,-52.34,-50.83,-52.25
2022/10/22 04:12:01+0000,-31.29,-44.58,-34.32,-52.20,-50.79,-53.07
2022/10/22 04:12:53+0000,-31.06,-44.96,-33.96,-52.79,-51.33,-52.17
2022/10/22 04:13:45+0000,-31.59,-44.42,-34.31,-52.20,-50.73,-52.31
2022/10/22 04:14:37+0000,-31.91,-44.86,-34.13,-52.43,-50.57,-53.00
2022/10/22 04:15:29+0000,-31.78,-44.48,-34.17,-52.43,-50.71,-52.46
2022/10/22 04:16:21+0000,-31.92,-46.56,-34.59,-52.36,-51.02,-52.36
2022/10/22 04:17:13+0000,-31.60,-46.05,-33.89,-52.36,-50.30,-52.72
2022/10/22 04:18:05+0000,-31.40,-46.00,-33.55,-52.04,-51.06,-52.06
2022/10/22 04:18:57+0000,-31.90,-44.71,-33.84,-52.58,-50.81,-52.39
2022/10/22 04:19:50+0000,-31.41,-46.44,-33.89,-52.31,-50.46,-52.85
2022/10/22 04:20:42+0000,-31.50,-45.89,-33.50,-52.56,-51.04,-52.75
2022/10/22 04:21:41+0000,-31.69,-46.24,-33.35,-53.02,-51.34,-52.72
2022/10/22 04:22:33+0000,-32.28,-44.21,-34.20,-52.63,-51.04,-53.37
2022/10/22 04:23:25+0000,-32.05,-46.40,-33.97,-52.35,-52.21,-52.77
2022/10/22 04:24:17+0000,-32.24,-45.41,-33.76,-52.41,-51.32,-53.33
2022/10/22 04:25:09+0000,-31.94,-44.68,-33.52,-52.94,-50.54,-51.63
2022/10/22 04:26:01+0000,-32.07,-46.13,-34.19,-52.53,-51.14,-52.63
2022/10/22 04:26:54+0000,-31.53,-46.38,-33.52,-52.35,-51.82,-52.65
2022/10/22 04:27:46+0000,-31.64,-45.86,-33.52,-52.07,-51.61,-52.43
2022/10/22 04:28:38+0000,-31.73,-47.07,-33.80,-52.78,-50.09,-52.94
2022/10/22 04:29:30+0000,-31.79,-45.25,-33.43,-53.39,-51.30,-53.03
2022/10/22 04:30:23+0000,-32.49,-46.75,-34.07,-52.21,-51.51,-53.31
2022/10/22 04:31:22+0000,-32.94,-46.20,-33.56,-52.12,-50.72,-52.72
2022/10/22 04:32:14+0000,-33.17,-45.38,-33.57,-52.58,-51.15,-53.17
2022/10/22 04:33:06+0000,-32.61,-47.35,-34.06,-52.89,-50.83,-52.72
2022/10/22 04:33:58+0000,-32.58,-46.96,-34.39,-52.68,-50.62,-53.09
2022/10/22 04:34:50+0000,-33.33,-46.37,-33.40,-53.20,-51.51,-53.29
2022/10/22 04:35:42+0000,-34.56,-45.87,-34.23,-52.72,-51.48,-53.50
2022/10/22 04:36:34+0000,-34.37,-45.50,-33.63,-52.84,-51.13,-53.18
2022/10/22 04:37:26+0000,-34.10,-45.51,-34.17,-52.76,-52.20,-52.76
2022/10/22 04:38:18+0000,-33.72,-46.25,-34.13,-52.64,-51.83,-52.42
2022/10/22 04:39:10+0000,-34.79,-45.71,-34.11,-52.75,-52.39,-52.81
2022/10/22 04:40:03+0000,-33.98,-44.44,-34.28,-52.78,-51.08,-52.43
2022/10/22 04:41:02+0000,-33.03,-45.47,-33.64,-52.85,-51.55,-52.46
2022/10/22 04:41:54+0000,-33.72,-45.67,-34.05,-52.86,-51.68,-53.00
2022/10/22 04:42:46+0000,-33.53,-45.42,-33.77,-52.29,-52.01,-53.39
2022/10/22 04:43:38+0000,-33.75,-46.48,-33.94,-52.48,-51.09,-53.05
2022/10/22 04:44:30+0000,-32.97,-45.69,-32.87,-52.65,-51.85,-51.88
2022/10/22 04:45:22+0000,-33.77,-46.43,-33.75,-52.83,-52.09,-52.87
2022/10/22 04:46:14+0000,-34.07,-46.71,-33.71,-52.63,-51.97,-52.66